This is the latest recevied weather packets stored in our database for station/object W2GRK-15. If no packets are shown the sender has not sent any weather packets the latest 10 day(s).
| Time | Temp. | Humidity | Pressure | Rain* | Wind** | Luminosity | Snow |
|---|---|---|---|---|---|---|---|
| 1777765285 | 13.89° C | 38% | 1011.1 hPa | 0 mm | - | 6 W/m² | - |
| 1777764319 | 14.44° C | 37% | 1011 hPa | 0 mm | - | 10 W/m² | - |
| 1777764141 | 14.44° C | 37% | 1010.9 hPa | 0 mm | - | 14 W/m² | - |
| 1777763610 | 14.44° C | 36% | 1011.1 hPa | 0 mm | - | 18 W/m² | - |
| 1777761806 | 15° C | 36% | 1010.7 hPa | 0 mm | - | 46 W/m² | - |
| 1777761697 | 15° C | 36% | 1010.8 hPa | 0 mm | - | 46 W/m² | - |
| 1777760838 | 15° C | 37% | 1010.6 hPa | 0 mm | - | 73 W/m² | - |
| 1777760790 | 15.56° C | 36% | 1010.6 hPa | 0 mm | - | 73 W/m² | - |
| 1777760597 | 15.56° C | 37% | 1010.8 hPa | 0 mm | - | 79 W/m² | - |
| 1777760549 | 15.56° C | 36% | 1010.8 hPa | 0 mm | - | 81 W/m² | - |
| 1777760198 | 15.56° C | 36% | 1010.7 hPa | 0 mm | - | 81 W/m² | - |
| 1777759888 | 15.56° C | 37% | 1010.8 hPa | 0 mm | - | 88 W/m² | - |
| 1777759536 | 15° C | 37% | 1010.9 hPa | 0 mm | - | 85 W/m² | - |
| 1777759097 | 15.56° C | 35% | 1010.9 hPa | 0 mm | - | 79 W/m² | - |
| 1777758920 | 15.56° C | 37% | 1010.8 hPa | 0 mm | - | 77 W/m² | - |
| 1777758678 | 15.56° C | 36% | 1010.8 hPa | 0 mm | - | 84 W/m² | - |
| 1777758630 | 15.56° C | 36% | 1011 hPa | 0 mm | - | 87 W/m² | - |
| 1777758566 | 15.56° C | 35% | 1010.8 hPa | 0 mm | - | 92 W/m² | - |
| 1777758436 | 15.56° C | 37% | 1010.9 hPa | 0 mm | - | 103 W/m² | - |
| 1777758388 | 15.56° C | 38% | 1010.8 hPa | 0 mm | - | 106 W/m² | - |
| 1777758211 | 15.56° C | 36% | 1010.7 hPa | 0 mm | - | 105 W/m² | - |
| 1777757506 | 15.56° C | 37% | 1010.7 hPa | 0 mm | - | 104 W/m² | - |
| 1777757244 | 15.56° C | 37% | 1010.6 hPa | 0 mm | - | 90 W/m² | - |
| 1777757180 | 15.56° C | 37% | 1010.5 hPa | 0 mm | - | 92 W/m² | - |
| 1777757135 | 15.56° C | 37% | 1010.5 hPa | 0 mm | - | 94 W/m² | - |
* Rain latest hour (hover to see other rain measurements)
** Current wind speed in m/s (hover to see current wind gust speed)